#timestamp,LO_Frequency,Hit,StdDev 
1531177215.1,286046999.1,N
1531177235.8,286046996.5,N
1531177255.7,286046996.6,N
1531177275.5,286046999.2,N
1531177295.4,286046998.3,N
1531177315.2,286046999.2,N
1531177335.0,286046996.5,N
1531177335.9,286046996.5,N
1531177355.8,286046999.6,N
1531177375.6,286046997.8,N
1531177395.5,286046995.1,Y
1531177415.3,286046997.1,P
1531177435.1,286046999.5,N
1531177455.3,286046999.6,N
1531177475.1,286046998.6,N
1531177495.9,286046999.0,N
1531177515.7,286046996.6,Y
1531177535.6,286046998.3,P
1531177555.4,286047001.1,P
1531177575.2,286047000.7,N
1531177595.1,286046999.1,N
1531177596.0,286046999.1,N
1531177615.8,286046999.0,N
1531177635.2,286046998.4,N
1531177655.1,286046998.7,N
1531177656.0,286046998.7,N
1531177675.8,286046998.7,N
1531177695.6,286046999.4,N
1531177715.5,286046997.2,Y
1531177735.3,286046997.0,P
1531177755.2,286046995.4,P
1531177775.9,286046996.9,N
1531177795.7,286046997.1,N
1531177815.6,286046999.5,N
1531177835.4,286046997.5,N
1531177855.2,286046997.1,N
1531177875.1,286046996.8,N
1531177876.0,286046996.8,N
1531177895.8,286046995.4,Y
1531177915.7,286047001.2,P
1531177935.5,286047000.8,N
1531177955.3,286047000.2,N
1531177975.2,286047000.6,N
1531177995.0,286047000.6,N
1531177995.9,286047000.6,N
1531178015.8,286047000.8,N
1531178035.6,286046998.5,N
1531178055.4,286047000.9,N
1531178075.3,286047000.9,N
1531178095.1,286047000.8,N
1531178115.8,286047000.1,N
1531178135.7,286046998.5,N
1531178155.5,286047000.7,N
1531178175.4,286046999.9,N
1531178195.2,286047000.9,N
1531178215.0,286047001.1,N
1531178215.9,286047001.1,N
1531178235.8,286047000.2,N
1531178255.6,286047002.7,N
1531178275.5,286047002.8,N
1531178295.3,286047001.6,N
1531178315.1,286047002.2,N
1531178335.9,286047002.5,N
1531178355.7,286047000.6,N
1531178375.5,286046999.3,N
1531178395.4,286046999.1,N
1531178415.2,286046999.1,N
1531178435.1,286047001.1,N
1531178436.0,286047001.1,N
1531178455.8,286047000.3,N
1531178475.6,286047000.5,N
1531178495.5,286047000.0,N
1531178515.3,286047000.4,N
1531178535.1,286047000.4,N
1531178555.9,286046999.8,N
1531178575.7,286047002.8,N
1531178595.6,286047001.2,N
1531178615.4,286046999.2,N
1531178635.2,286046998.6,N
1531178655.1,286046999.5,N
1531178656.0,286046999.5,N
1531178675.8,286046999.6,N
1531178695.7,286046999.5,N
1531178715.5,286046999.5,N
1531178735.3,286046999.0,N
1531178755.2,286047001.0,N
1531178775.9,286047000.3,N
1531178795.7,286047002.8,N
1531178815.6,286047002.8,N
1531178835.4,286047000.2,N
1531178855.3,286046999.8,N
1531178875.1,286047000.6,N
1531178876.0,286047000.6,N
1531178895.8,286047001.0,N
1531178915.7,286047001.1,N
1531178935.5,286046999.1,N
1531178955.3,286046999.4,N
1531178975.7,286046999.4,N
1531178995.6,286047000.8,N
1531179015.4,286046998.3,N
1531179035.2,286046999.5,N
1531179055.1,286046996.5,Y
1531179056.0,286046996.5,P
1531179075.8,286046997.2,N
1531179095.7,286046997.8,N
1531179115.5,286046997.8,N
1531179135.3,286046995.3,Y
1531179155.2,286046999.5,P
1531179175.0,286046999.6,N
1531179175.9,286046999.6,N
1531179195.8,286046998.7,N
1531179215.6,286046998.5,N
1531179235.4,286046998.2,N
1531179255.3,286047000.6,N
1531179275.1,286047000.7,N
1531179295.8,286047000.6,N
1531179315.7,286047000.4,N
1531179335.5,286047001.0,N
1531179355.4,286047001.1,N
1531179375.2,286047001.1,N
1531179395.0,286047000.8,N
1531179395.9,286047000.8,N
1531179415.8,286047001.2,N
1531179435.6,286046998.8,N
1531179455.4,286046998.3,N
1531179475.3,286047000.1,N
1531179495.1,286047002.6,N
1531179515.9,286047002.8,N
1531179535.7,286047002.1,N
1531179555.5,286047002.3,N
1531179575.4,286046999.7,N
1531179595.2,286047002.8,N
1531179615.0,286047000.6,N
1531179615.9,286047000.6,N
1531179635.8,286047000.7,N
1531179655.6,286047001.0,N
1531179675.5,286047000.1,N
1531179695.3,286046999.7,N
1531179715.1,286047002.1,N
1531179735.9,286047001.8,N
1531179755.7,286047004.3,Y
1531179775.5,286047002.5,P
1531179795.4,286047000.2,N
1531179815.2,286047002.4,N
1531179835.1,286047002.6,N
1531179836.0,286047002.6,N
1531179855.8,286047002.7,N
1531179875.6,286046998.6,N
1531179895.5,286047001.2,N
1531179915.3,286047000.1,N
1531179935.1,286047002.6,N
1531179955.9,286047004.3,Y
1531179975.7,286047002.2,P
1531179995.6,286047001.9,P
1531180015.4,286047001.9,P
1531180035.2,286047001.9,Y
1531180055.1,286047001.1,P
1531180056.0,286047001.1,N
1531180075.8,286047000.3,N
1531180095.7,286047000.1,N
1531180115.5,286047000.1,N
1531180135.3,286047000.5,N
1531180155.2,286046998.8,N
1531180175.0,286047001.1,N
1531180175.9,286047001.1,N
1531180195.8,286047002.8,Y
1531180215.6,286047000.3,P
1531180235.4,286047000.4,N
1531180255.3,286047000.9,P
1531180275.1,286047000.2,N
1531180295.8,286046999.8,N
1531180315.7,286047000.4,N
1531180335.5,286046998.6,Y
1531180355.4,286046999.3,P
1531180375.2,286046998.8,N
1531180395.0,286046998.7,N
1531180395.9,286046998.7,N
1531180415.8,286046998.3,N
1531180435.6,286047001.0,N
1531180455.4,286047000.6,N
1531180475.3,286046998.5,N
1531180495.1,286046999.3,N
1531180515.9,286046998.7,N
1531180535.7,286047000.8,N
1531180555.5,286046998.9,N
1531180575.4,286046997.0,Y
1531180595.2,286046998.2,P
1531180615.0,286047000.2,N
1531180615.9,286047000.2,N
1531180635.8,286047002.0,N
1531180655.6,286047002.1,N
1531180675.5,286047002.7,N
1531180695.3,286047002.2,N
1531180715.1,286047004.3,N
1531180735.9,286047002.3,N
1531180755.7,286047001.4,N
1531180775.5,286047001.7,N
1531180795.4,286047002.3,N
